Temp
-0 -0 -0 -1 -1 -1 -1 -1 -1 -1 -1 -1 -1 -1 -1 -1 -1 -1 -1 -1 -1 -1 -0 -0 -0 -1 -1 -0 -1 -1 -1 -1 -0 0 1 2 3 4 5 6 6 7 6
-1 -1 -2 -2 -2 -2 -2 -2 -2 -2 -2 -2 -2 -2 -2 -2 -2 -1 -1 -2 -2 -2 -1 -1 -1 -1 -1 -1 -1 -1 -1 -2 -2 -1 -0 0 1 2 3 4 5 6 6
-1 -2 -2 -2 -2 -2 -2 -3 -3 -3 -3 -3 -3 -3 -2 -2 -2 -2 -2 -2 -2 -2 -2 -2 -2 -2 -1 -1 -1 -1 -2 -2 -2 -2 -2 -1 0 1 1 2 3 4 5
-2 -2 -2 -3 -3 -3 -3 -3 -3 -3 -3 -3 -3 -3 -3 -3 -3 -3 -3 -3 -3 -3 -3 -3 -2 -2 -3 -2 -2 -2 -2 -2 -3 -2 -2 -3 -2 0 0 1 2 3 4
-2 -3 -3 -3 -4 -4 -4 -4 -4 -4 -4 -4 -4 -4 -5 -5 -6 -7 -8 -7 -6 -5 -4 -4 -3 -3 -3 -3 -3 -3 -3 -3 -3 -3 -3 -4 -4 -2 -0 1 1 1 3
-3 -4 -4 -4 -4 -4 -4 -5 -5 -5 -5 -5 -5 -6 -5 -6 -8 -11 -12 -12 -12 -11 -9 -7 -6 -5 -5 -4 -3 -4 -4 -4 -3 -3 -3 -4 -4 -4 -3 -1 -0 -0 0
-4 -4 -5 -5 -5 -5 -5 -5 -5 -6 -6 -6 -7 -7 -7 -7 -9 -10 -13 -14 -13 -13 -12 -11 -10 -9 -9 -9 -8 -7 -5 -4 -4 -5 -4 -3 -3 -4 -5 -4 -2 -2 -1
-5 -5 -5 -5 -6 -6 -6 -6 -7 -7 -8 -8 -9 -9 -10 -10 -12 -13 -15 -15 -14 -13 -14 -14 -14 -13 -12 -13 -12 -11 -10 -8 -5 -5 -5 -4 -3 -3 -4 -5 -4 -3 -2
-5 -5 -6 -6 -6 -7 -7 -8 -8 -9 -9 -10 -10 -12 -13 -14 -15 -17 -19 -18 -18 -16 -16 -16 -16 -16 -15 -14 -13 -13 -12 -10 -9 -8 -5 -4 -4 -4 -4 -5 -5 -6 -5
-5 -6 -6 -6 -7 -7 -9 -9 -10 -10 -11 -12 -12 -14 -16 -16 -16 -17 -20 -19 -19 -18 -18 -18 -17 -16 -16 -15 -14 -14 -13 -12 -11 -10 -9 -6 -4 -4 -4 -6 -5 -6 -6
-6 -6 -6 -7 -8 -9 -9 -10 -11 -11 -13 -14 -15 -16 -16 -17 -18 -18 -20 -19 -19 -19 -18 -18 -18 -17 -17 -16 -15 -14 -13 -12 -12 -11 -10 -9 -8 -6 -5 -5 -6 -5 -6
-6 -7 -7 -9 -10 -10 -10 -10 -11 -13 -14 -15 -16 -18 -18 -18 -19 -19 -20 -19 -18 -18 -18 -18 -17 -18 -17 -16 -16 -16 -15 -13 -12 -11 -9 -9 -9 -9 -8 -6 -6 -6 -6
-6 -7 -9 -10 -10 -11 -11 -12 -12 -14 -16 -16 -18 -20 -19 -19 -19 -19 -20 -19 -18 -18 -18 -17 -17 -16 -15 -15 -16 -16 -16 -15 -14 -12 -10 -9 -8 -8 -8 -8 -8 -6 -6
-7 -8 -9 -10 -11 -11 -12 -13 -14 -15 -16 -17 -20 -20 -20 -20 -19 -19 -19 -17 -17 -16 -16 -16 -15 -15 -16 -16 -16 -16 -16 -16 -16 -14 -12 -9 -9 -8 -8 -8 -8 -8 -7
-8 -9 -10 -11 -11 -12 -13 -14 -15 -15 -17 -21 -20 -19 -19 -19 -19 -18 -17 -16 -16 -15 -15 -15 -15 -15 -15 -16 -16 -17 -17 -16 -16 -14 -12 -10 -9 -8 -8 -7 -7 -8 -8
-9 -10 -11 -12 -12 -13 -14 -14 -14 -16 -16 -20 -20 -19 -19 -19 -18 -17 -17 -16 -16 -15 -15 -15 -15 -15 -16 -16 -16 -17 -17 -16 -15 -13 -10 -9 -9 -8 -8 -8 -8 -8 -8
-10 -12 -12 -13 -14 -14 -14 -16 -16 -13 -14 -17 -21 -20 -20 -19 -19 -18 -18 -17 -18 -17 -17 -16 -16 -16 -16 -16 -16 -17 -17 -16 -15 -13 -11 -10 -10 -9 -8 -8 -8 -8 -8
-12 -13 -14 -14 -14 -15 -15 -16 -17 -17 -17 -14 -15 -19 -20 -21 -20 -19 -20 -19 -16 -16 -17 -17 -17 -18 -18 -17 -16 -16 -16 -15 -15 -14 -11 -10 -10 -10 -9 -8 -8 -8 -9
-14 -14 -15 -15 -15 -16 -16 -16 -17 -17 -18 -18 -17 -16 -18 -18 -20 -18 -18 -18 -18 -18 -17 -17 -17 -17 -17 -15 -15 -15 -15 -14 -13 -13 -12 -10 -10 -9 -9 -9 -9 -9 -9
-15 -15 -15 -15 -16 -16 -17 -17 -17 -17 -18 -19 -18 -18 -19 -20 -18 -18 -18 -18 -18 -18 -18 -17 -16 -16 -15 -14 -14 -14 -14 -14 -12 -12 -12 -11 -10 -10 -9 -9 -9 -10 -10
-16 -16 -16 -16 -17 -17 -17 -18 -18 -18 -18 -18 -19 -19 -21 -20 -19 -19 -19 -19 -19 -19 -18 -18 -17 -16 -15 -14 -13 -13 -13 -12 -12 -11 -11 -11 -10 -10 -10 -10 -10 -10 -11
-17 -17 -17 -17 -17 -17 -18 -18 -18 -18 -19 -19 -18 -19 -19 -19 -19 -19 -19 -19 -19 -19 -19 -19 -18 -17 -17 -16 -15 -14 -13 -13 -12 -12 -11 -11 -11 -11 -10 -10 -11 -11 -12
-18 -18 -18 -18 -18 -18 -18 -19 -18 -19 -19 -19 -19 -19 -19 -19 -19 -19 -19 -19 -19 -19 -19 -19 -18 -18 -17 -16 -16 -15 -15 -14 -14 -13 -13 -13 -12 -12 -12 -12 -12 -12 -13
-19 -19 -19 -19 -19 -18 -19 -19 -19 -19 -19 -19 -19 -19 -19 -20 -20 -20 -19 -19 -19 -19 -19 -19 -19 -19 -18 -18 -17 -16 -16 -15 -15 -15 -15 -14 -14 -14 -14 -14 -14 -14 -14
-20 -20 -20 -19 -19 -19 -19 -19 -19 -19 -19 -19 -19 -19 -19 -19 -20 -19 -19 -19 -19 -19 -19 -19 -19 -19 -18 -18 -18 -18 -17 -17 -16 -16 -16 -16 -15 -15 -15 -15 -15 -15 -15
-20 -20 -20 -20 -20 -20 -20 -19 -19 -20 -19 -19 -20 -20 -20 -19 -19 -19 -19 -19 -19 -19 -19 -19 -19 -19 -18 -18 -18 -18 -18 -17 -17 -17 -17 -17 -16 -16 -16 -17 -17 -17 -17
Height
1525 1524 1523 1521 1520 1518 1515 1513 1512 1510 1509 1509 1506 1500 1499 1496 1490 1485 1485 1483 1480 1478 1476 1472 1468 1466 1464 1463 1462 1462 1463 1464 1456 1456 1459 1463 1464 1465 1467 1471 1471 1473 1474
1522 1521 1520 1519 1517 1515 1512 1510 1508 1508 1504 1504 1500 1495 1493 1492 1487 1480 1478 1476 1473 1471 1468 1465 1461 1459 1456 1455 1452 1452 1451 1452 1451 1444 1449 1450 1451 1453 1457 1459 1461 1462 1463
1520 1519 1517 1515 1512 1510 1508 1506 1504 1501 1499 1497 1494 1490 1485 1482 1478 1474 1469 1467 1464 1462 1460 1459 1454 1451 1447 1445 1443 1441 1441 1440 1439 1437 1435 1440 1441 1440 1443 1445 1448 1450 1452
1518 1516 1515 1512 1509 1507 1504 1501 1498 1496 1492 1488 1482 1477 1474 1472 1467 1462 1459 1455 1453 1452 1448 1446 1442 1441 1439 1436 1434 1432 1432 1430 1429 1426 1425 1428 1429 1428 1429 1430 1433 1435 1440
1514 1512 1510 1508 1505 1503 1500 1497 1494 1490 1485 1479 1473 1467 1462 1457 1453 1449 1446 1442 1439 1436 1434 1433 1427 1427 1426 1425 1425 1422 1422 1422 1419 1418 1414 1416 1416 1416 1412 1414 1418 1425 1428
1508 1506 1505 1502 1500 1497 1493 1490 1485 1480 1475 1469 1463 1457 1452 1447 1443 1440 1439 1434 1429 1423 1418 1413 1411 1413 1410 1410 1411 1412 1412 1410 1408 1407 1405 1403 1402 1401 1409 1407 1407 1412 1414
1502 1500 1498 1495 1492 1489 1485 1480 1474 1468 1462 1456 1450 1445 1439 1435 1431 1427 1423 1418 1412 1406 1402 1399 1395 1396 1396 1395 1394 1395 1396 1398 1396 1397 1392 1390 1392 1394 1396 1398 1394 1397 1396
1494 1493 1490 1487 1484 1479 1474 1469 1463 1457 1451 1444 1437 1432 1425 1419 1415 1410 1406 1401 1395 1390 1388 1386 1384 1382 1381 1383 1383 1381 1378 1379 1380 1382 1379 1381 1379 1384 1385 1384 1386 1388 1392
1488 1485 1481 1478 1473 1469 1464 1458 1452 1445 1439 1433 1426 1419 1412 1405 1402 1398 1394 1388 1381 1377 1375 1373 1371 1368 1368 1372 1371 1365 1363 1360 1362 1364 1366 1367 1368 1370 1373 1373 1375 1377 1375
1479 1476 1473 1470 1465 1459 1454 1448 1442 1435 1428 1421 1413 1408 1403 1396 1393 1388 1385 1380 1373 1368 1365 1362 1361 1360 1359 1360 1358 1355 1349 1342 1350 1351 1351 1349 1352 1355 1359 1359 1361 1360 1360
1471 1469 1465 1461 1456 1450 1444 1439 1432 1425 1417 1410 1404 1399 1394 1388 1383 1379 1377 1374 1368 1361 1356 1352 1350 1350 1347 1346 1346 1341 1335 1336 1336 1337 1336 1334 1335 1337 1339 1343 1345 1346 1348
1463 1460 1456 1452 1448 1442 1436 1431 1423 1416 1407 1401 1394 1388 1383 1379 1375 1371 1368 1367 1363 1356 1349 1343 1339 1338 1335 1333 1331 1327 1325 1325 1322 1320 1319 1317 1319 1321 1323 1327 1331 1331 1335
1454 1450 1447 1443 1439 1434 1428 1422 1415 1407 1400 1394 1387 1380 1374 1370 1365 1362 1359 1356 1352 1347 1340 1334 1330 1328 1324 1320 1317 1314 1313 1310 1308 1305 1303 1302 1304 1309 1314 1316 1318 1322 1324
1446 1442 1438 1434 1430 1426 1420 1415 1407 1400 1393 1387 1380 1373 1367 1364 1360 1357 1350 1344 1339 1334 1329 1322 1318 1314 1311 1308 1303 1301 1299 1295 1294 1291 1289 1290 1294 1296 1299 1304 1308 1311 1313
1437 1434 1430 1427 1422 1418 1413 1409 1401 1396 1389 1382 1378 1373 1365 1358 1354 1350 1346 1339 1334 1328 1321 1315 1307 1300 1293 1290 1287 1285 1284 1282 1279 1278 1277 1277 1281 1282 1285 1290 1294 1300 1303
1429 1426 1423 1419 1415 1410 1405 1400 1400 1391 1385 1379 1374 1369 1362 1355 1349 1343 1337 1331 1325 1319 1311 1304 1297 1293 1287 1281 1274 1271 1270 1267 1265 1265 1262 1263 1265 1270 1272 1278 1283 1287 1290
1423 1420 1416 1413 1408 1404 1399 1393 1384 1384 1380 1370 1365 1360 1355 1349 1341 1335 1328 1321 1313 1308 1301 1295 1288 1281 1274 1269 1264 1260 1257 1256 1256 1254 1254 1254 1258 1261 1264 1266 1270 1275 1278
1416 1414 1410 1407 1403 1399 1393 1388 1382 1375 1369 1363 1359 1352 1346 1340 1334 1328 1319 1311 1303 1299 1295 1288 1280 1270 1264 1259 1254 1251 1249 1247 1247 1246 1246 1247 1249 1250 1253 1257 1259 1264 1268
1409 1407 1404 1401 1398 1393 1388 1384 1378 1373 1366 1359 1352 1347 1341 1333 1328 1321 1314 1306 1300 1293 1288 1281 1274 1264 1256 1250 1245 1242 1241 1241 1240 1241 1241 1242 1242 1244 1245 1249 1253 1256 1260
1402 1400 1398 1395 1392 1388 1384 1379 1374 1369 1363 1357 1351 1344 1336 1331 1323 1315 1309 1303 1297 1290 1284 1277 1270 1263 1255 1248 1241 1234 1232 1233 1234 1235 1235 1236 1236 1238 1240 1242 1245 1248 1252
1396 1394 1392 1389 1386 1383 1379 1375 1370 1366 1360 1355 1350 1344 1341 1333 1324 1317 1309 1302 1295 1288 1281 1275 1268 1261 1254 1247 1241 1235 1232 1230 1230 1230 1229 1230 1231 1232 1235 1237 1239 1242 1246
1389 1388 1387 1384 1382 1378 1374 1370 1367 1363 1358 1353 1348 1343 1337 1331 1324 1317 1310 1303 1297 1290 1283 1275 1268 1261 1255 1248 1242 1236 1232 1230 1227 1226 1226 1226 1226 1227 1229 1232 1235 1238 1242
1383 1382 1381 1379 1377 1374 1371 1367 1364 1359 1355 1351 1346 1341 1336 1330 1324 1318 1311 1305 1298 1291 1284 1277 1270 1262 1256 1250 1244 1239 1234 1230 1227 1226 1226 1225 1225 1226 1228 1231 1233 1237 1241
1377 1377 1376 1375 1373 1370 1367 1364 1360 1356 1352 1348 1344 1340 1335 1330 1324 1318 1313 1306 1300 1294 1287 1280 1273 1266 1258 1252 1246 1241 1237 1233 1230 1228 1227 1227 1227 1228 1230 1232 1235 1238 1242
1372 1371 1370 1369 1367 1365 1363 1360 1357 1353 1349 1346 1342 1338 1333 1329 1324 1318 1313 1307 1301 1296 1290 1283 1277 1271 1264 1257 1251 1245 1240 1236 1233 1231 1230 1230 1230 1231 1232 1234 1237 1240 1244
1366 1366 1365 1364 1362 1360 1358 1355 1352 1349 1346 1343 1339 1335 1330 1326 1321 1316 1312 1307 1301 1296 1291 1286 1280 1275 1269 1262 1257 1251 1246 1241 1238 1236 1234 1234 1234 1235 1236 1238 1240 1243 1246
Wind_Speed
9 11 13 14 15 17 17 19 20 20 22 24 25 25 28 30 29 28 28 28 28 29 26 26 26 25 31 36 38 37 40 41 50 52 48 44 42 43 40 37 40 41 42
12 14 16 17 18 21 23 24 24 25 25 28 30 31 31 33 34 33 35 35 34 34 34 34 32 28 28 28 31 39 41 40 44 51 48 50 49 48 46 44 43 43 44
14 16 18 21 23 25 27 28 28 31 32 34 35 38 39 40 41 39 39 41 42 42 39 37 37 35 35 32 30 32 35 39 43 46 50 49 49 48 46 47 47 46 48
16 18 19 21 23 26 28 30 33 36 40 43 46 47 48 48 47 47 47 45 45 46 46 46 43 40 39 37 36 36 35 35 37 43 47 46 47 51 47 49 49 50 48
19 21 22 24 26 28 29 32 36 40 44 48 51 53 54 54 52 49 45 46 48 50 49 49 48 49 47 42 40 40 38 38 37 40 44 43 46 49 54 54 52 51 51
20 22 23 26 29 30 33 37 42 46 48 50 50 51 52 53 53 44 33 37 43 48 52 53 52 52 51 51 48 43 41 41 41 41 43 44 48 43 48 49 50 51 54
22 23 26 29 30 33 37 42 45 46 48 50 50 51 53 53 52 51 41 39 44 47 51 54 57 56 52 49 49 49 49 45 44 44 45 48 46 43 37 44 49 51 57
23 26 28 29 32 37 41 42 45 45 47 49 51 52 54 54 51 49 43 44 51 54 53 50 47 50 51 44 44 46 50 52 52 48 49 52 46 44 45 41 43 45 46
25 27 29 32 37 39 41 42 44 46 47 48 50 51 50 50 44 38 33 35 40 43 44 45 45 47 47 41 43 47 49 54 54 48 52 52 46 43 43 46 43 42 48
27 28 31 35 37 39 40 41 43 44 46 47 48 46 42 41 35 32 28 30 35 38 38 36 35 35 37 37 40 46 51 57 49 48 50 53 50 46 43 49 53 51 50
27 29 33 34 36 37 39 40 41 43 44 44 44 41 37 35 32 28 26 29 34 38 40 41 40 37 38 39 38 40 44 46 48 46 47 48 50 50 47 47 53 58 52
28 32 33 33 34 34 37 38 40 40 41 41 41 39 35 34 33 32 28 29 31 37 43 44 42 38 36 36 37 42 45 44 45 46 47 49 46 42 46 47 46 51 58
30 32 32 32 33 33 35 36 38 37 37 38 37 38 41 42 42 40 35 34 32 36 41 43 41 43 42 43 43 43 42 46 45 46 46 47 47 46 39 36 38 42 44
32 32 32 33 34 34 33 33 34 34 36 36 36 42 43 40 38 37 40 42 43 40 44 49 47 46 41 44 44 43 42 43 46 45 44 43 43 45 43 39 37 35 39
31 31 31 32 32 33 32 31 31 31 32 32 36 38 41 41 40 36 38 39 42 43 43 45 45 46 47 45 44 38 38 38 40 44 45 42 42 39 42 44 44 39 40
30 30 30 30 31 31 32 32 23 28 31 27 28 28 32 33 34 35 36 36 37 38 40 43 41 40 42 44 41 39 37 37 40 35 35 41 35 30 36 39 41 39 43
28 28 28 28 28 29 29 30 34 28 27 27 22 25 26 29 31 32 33 34 33 30 33 38 41 43 42 42 42 37 36 37 34 27 31 25 31 34 38 41 41 42 43
25 25 26 25 26 26 26 27 28 31 32 30 27 28 26 27 29 30 29 28 27 22 24 30 35 34 34 38 39 36 33 33 32 29 24 25 28 36 39 40 42 41 43
23 23 23 23 23 23 22 23 24 26 27 29 30 29 27 32 32 26 24 25 27 28 29 31 33 32 33 29 32 33 29 27 32 32 27 27 25 30 31 35 38 42 43
21 21 21 21 20 20 19 19 20 22 24 25 27 30 32 35 30 30 28 27 27 28 28 30 30 29 27 24 28 33 33 25 25 30 29 27 25 26 32 36 39 41 42
20 19 19 18 18 17 16 16 17 19 20 22 23 25 22 25 28 30 31 30 29 28 28 28 28 27 26 26 23 22 21 20 20 24 27 26 24 26 28 33 36 38 38
19 17 16 16 16 14 14 13 15 16 17 19 21 21 22 24 26 27 28 29 30 29 27 26 25 24 24 24 22 19 16 15 15 17 18 18 21 24 26 30 32 33 34
17 15 14 14 13 13 12 12 13 14 15 16 18 20 22 23 24 25 27 27 28 29 29 29 28 25 22 20 19 18 16 14 12 11 11 12 14 16 20 23 26 28 30
15 15 14 13 12 12 12 12 12 12 14 15 17 18 20 21 22 23 24 25 26 26 27 28 28 28 27 25 20 17 14 12 10 9 7 6 5 8 12 15 18 21 23
15 14 13 13 13 13 12 12 13 13 14 15 16 17 19 19 21 21 22 23 24 26 26 25 26 26 27 27 27 22 17 13 10 8 7 5 2 4 7 9 12 15 16
14 14 14 14 15 15 15 16 15 15 16 17 17 18 19 20 21 21 22 22 23 23 23 24 23 23 23 25 25 25 23 18 14 12 9 7 4 3 4 7 9 12 13
Wind_Direction
10 1 355 352 350 347 344 340 333 330 327 324 321 320 320 320 321 320 317 312 308 306 304 302 298 293 282 275 268 265 268 269 269 269 266 261 257 260 259 259 256 253 250
353 349 344 338 335 335 336 334 330 325 323 320 319 318 314 312 311 311 310 309 307 304 302 301 297 296 293 286 281 276 269 266 270 273 269 263 261 260 262 261 260 257 252
339 336 333 329 326 327 328 327 325 321 318 315 313 311 310 309 306 305 302 301 299 298 296 293 293 294 291 291 290 284 282 277 269 270 270 265 259 257 258 258 256 253 251
325 322 319 317 317 318 319 318 317 317 316 315 314 312 309 306 305 303 302 298 293 290 289 288 286 285 285 287 287 286 286 282 279 272 269 269 263 255 254 256 253 251 249
306 312 308 308 311 312 312 312 312 312 311 310 309 308 308 307 307 307 304 300 297 292 287 283 283 281 279 277 278 278 282 283 281 278 273 268 264 258 247 247 252 254 251
284 297 301 304 307 308 309 310 310 309 308 307 306 305 303 302 304 303 299 295 292 290 288 287 283 280 279 277 273 270 270 274 275 275 273 270 262 259 260 251 250 251 249
286 294 299 303 305 308 308 309 310 309 308 307 306 304 302 300 299 297 298 290 284 281 282 284 284 282 282 279 277 275 270 264 263 268 269 268 268 259 256 258 252 248 252
289 295 299 302 306 310 311 312 311 310 310 309 308 306 303 302 301 298 297 290 285 282 279 276 278 280 278 279 277 274 273 271 262 258 260 266 269 269 258 254 258 262 260
291 297 302 308 312 313 314 314 314 313 312 311 310 309 309 308 308 304 299 293 289 287 285 283 281 279 279 279 277 275 270 265 265 266 261 259 262 265 263 254 242 240 246
297 301 307 311 313 314 315 316 316 315 314 314 314 313 310 308 310 306 300 296 294 295 294 292 289 287 286 282 276 272 271 268 269 266 264 262 257 258 254 249 251 235 236
296 302 309 313 315 316 316 317 317 317 317 318 314 311 312 317 319 316 301 296 293 295 297 297 294 292 288 282 276 274 272 275 270 264 261 262 263 257 254 248 245 244 235
299 308 313 315 315 316 316 318 319 321 321 318 314 316 321 324 325 321 304 297 295 292 292 294 298 296 293 291 287 276 271 271 271 269 259 254 251 250 250 248 243 246 247
303 310 314 315 316 318 319 322 322 326 321 316 317 323 327 328 325 324 312 306 298 293 296 299 295 294 292 287 281 279 278 268 268 270 260 250 247 244 244 245 246 243 249
305 310 313 316 316 318 321 327 326 328 322 317 325 322 319 313 310 309 311 312 311 305 302 301 303 298 287 287 284 279 280 273 264 272 266 251 248 245 239 238 241 242 239
305 309 313 313 315 320 323 329 330 330 322 314 310 309 310 309 312 312 308 306 304 301 298 295 296 295 290 289 284 275 274 273 274 259 263 250 244 246 242 246 245 240 240
305 308 311 312 317 322 323 324 335 329 327 311 306 306 309 307 311 312 309 309 306 304 299 295 294 293 290 285 275 270 275 272 272 261 260 239 234 247 235 231 240 233 236
301 305 307 312 317 321 324 327 331 338 335 340 324 319 318 316 318 319 318 313 309 306 294 294 296 298 293 291 281 274 271 272 268 273 265 259 239 239 243 227 233 236 235
300 301 303 311 316 319 323 329 333 335 340 349 349 344 336 332 330 328 327 324 324 328 325 322 322 318 299 289 288 283 277 275 267 270 268 266 259 241 233 230 227 233 230
296 298 303 310 314 319 322 326 334 338 343 347 350 350 352 352 341 342 346 347 344 339 337 336 339 339 337 317 299 292 284 273 266 264 270 271 264 249 239 243 237 235 231
292 296 301 308 315 316 319 326 335 341 348 353 356 353 1 347 355 1 2 357 352 347 344 344 345 346 348 345 333 306 287 286 254 255 263 266 269 260 247 236 233 227 223
290 292 299 307 314 316 320 327 336 342 348 354 359 359 350 353 5 7 8 6 2 356 352 350 350 349 348 348 349 352 317 293 277 274 270 272 271 261 255 246 238 236 224
287 291 296 306 312 317 320 328 333 338 345 349 353 360 2 4 6 8 10 10 11 9 4 358 358 0 358 356 355 356 353 342 312 298 294 283 273 260 251 241 232 222 214
280 286 292 299 308 315 319 323 327 336 344 350 353 357 2 6 7 8 9 10 11 12 15 15 11 8 6 3 2 3 4 4 358 347 330 309 280 259 244 234 227 220 216
276 280 285 292 302 311 317 321 327 335 341 346 350 355 358 2 4 7 8 9 11 13 14 17 20 21 21 17 8 5 6 8 9 5 1 348 310 264 240 227 220 217 214
272 274 280 287 293 299 305 312 320 328 334 337 342 345 349 351 355 359 3 6 9 10 12 13 16 18 23 26 27 22 17 15 22 27 27 18 327 244 219 209 204 200 199
270 272 277 283 289 294 299 303 309 314 318 323 328 332 335 339 344 348 352 356 1 4 6 9 12 15 17 25 25 28 31 33 40 43 45 54 68 117 147 163 168 170 173